Regional Weather Roundup
Issued by NWS

Home | Current Version | Previous Version | Text Only | Print | Product List | Glossary On
Versions: 1 2 3 4 5 6 7 8 9 10 11 12 13 14 15 16 17 18 19 20 21 22 23 24 25 26 27 28 29 30 31 32 33 34 35 36 37 38 39 40 41 42 43 44 45 46 47 48 49
000
ASUS45 KCYS 280110
RWRWY

WYOMING REGIONAL WEATHER ROUNDUP
NATIONAL WEATHER SERVICE CHEYENNE WY
600 PM MST SAT DEC 27 2014

NOTE:  "FAIR" INDICATES FEW OR NO CLOUDS BELOW 12,000 FEET
WITH NO SIGNIFICANT WEATHER AND/OR OBSTRUCTIONS TO VISIBILITY.

WYZ001-280200-
YELLOWSTONE NATIONAL PARK

CITY           SKY/WX    TMP DP  RH WIND       PRES   REMARKS
LK YELLOWSTONE   N/A     10   4  76 VRB3      30.05S
W YELLOWSTONE  NOT AVBL

$$
WYZ002>013-054>058-071-098>099-280200-
NORTHERN WYOMING

CITY           SKY/WX    TMP DP  RH WIND       PRES   REMARKS
JACKSON        CLOUDY    18  14  86 S14       30.10S WCI   4
CODY           FAIR      21   9  58 W9        29.97F WCI  11
GREYBULL       FAIR       2   0  91 SW3       30.08F
WORLAND        FAIR      -1  -4  87 S6        30.07F WCI -13
SHERIDAN       MOCLDY    14   2  58 SW8       29.99F WCI   3
BUFFALO        FAIR      16   0  49 S8        29.98F WCI   5
GILLETTE       CLOUDY    19   7  59 SW12      30.01S WCI   7
HULETT           N/A    N/A N/A N/A MISG        N/A
NEWCASTLE      FAIR      16  10  79 N3        30.04S

$$
WYZ014>020-022>026-101>103-280200-
CENTRAL WYOMING

CITY           SKY/WX    TMP DP  RH WIND       PRES   REMARKS
BIG PINEY      FAIR      -3  -8  79 N7        30.11S WCI -16
PINEDALE       FAIR       0  -4  85 W5        30.11R WCI -10
DUBOIS         NOT AVBL
LANDER         FAIR      12   2  64 SW12      30.02R WCI  -2
RIVERTON       FAIR       6   1  80 SW6       30.03S WCI  -4
CASPER         FAIR      16   7  67 SW17      30.03S WCI   0
DOUGLAS        FAIR      18   6  59 NW12      30.04S WCI   5

$$
WYZ021-027>030-104>119-280200-
SOUTHERN WYOMING

CITY           SKY/WX    TMP DP  RH WIND       PRES   REMARKS
EVANSTON       FAIR      11   5  77 SW7       30.17S WCI   0
FORT BRIDGER   CLOUDY    17  10  74 W31G37    30.16S WCI  -2
ROCK SPRINGS   MOCLDY    14   7  73 SW10      30.15R WCI   1
DIXON          FAIR      13   4  65 SW5       30.21S WCI   6
RAWLINS        FAIR      14   6  70 SW24G37   30.05S WCI  -5
SARATOGA       FAIR      12   1  62 CALM      30.10R
LARAMIE        FAIR      12  -1  56 SW17      30.00R WCI  -5
CHEYENNE       MOCLDY    21   3  45 SW15      30.02S WCI   8
TORRINGTON     CLOUDY    23  10  57 W13       30.07R WCI  11
PINE BLUFFS    FAIR       5  -2  72 W6        30.08S WCI  -6

$$


USA.gov is the U.S. government's official web portal to all federal, state and local government web resources and services.